Time,TemperatureF,DewpointF,PressureIn,WindDirection,WindDirectionDegrees,WindSpeedMPH,WindSpeedGustMPH,Humidity,HourlyPrecipIn,Conditions,Clouds,dailyrainin,SoftwareType,DateUTC
2013-04-18 00:10:00,28.4,19.6,29.79,WSW,247,6.8,-999.0,69,-99.99,,,0.00,Acu-Link.com,2013-04-18 06:10:00,
2013-04-18 00:25:00,27.5,18.7,29.81,WSW,247,2.2,-999.0,69,-99.99,,,0.00,Acu-Link.com,2013-04-18 06:25:00,
2013-04-18 00:41:00,26.8,18.3,29.79,South,180,5.8,-999.0,70,-99.99,,,0.00,Acu-Link.com,2013-04-18 06:41:00,
2013-04-18 00:56:00,26.2,17.4,29.80,SSW,202,4.2,-999.0,69,-99.99,,,0.00,Acu-Link.com,2013-04-18 06:56:00,
2013-04-18 01:11:00,25.0,16.6,29.80,South,180,2.7,-999.0,70,-99.99,,,0.00,Acu-Link.com,2013-04-18 07:11:00,
2013-04-18 01:26:00,24.4,17.0,29.80,South,180,3.2,-999.0,73,-99.99,,,0.00,Acu-Link.com,2013-04-18 07:26:00,
2013-04-18 01:41:00,23.5,15.8,29.80,South,180,0.0,-999.0,72,-99.99,,,0.00,Acu-Link.com,2013-04-18 07:41:00,
2013-04-18 01:56:00,23.5,16.1,29.81,SSE,157,2.7,-999.0,73,-99.99,,,0.00,Acu-Link.com,2013-04-18 07:56:00,
2013-04-18 02:33:00,24.3,16.3,29.79,South,180,0.0,-999.0,71,-99.99,,,0.00,Acu-Link.com,2013-04-18 08:33:00,
2013-04-18 02:48:00,23.9,15.6,29.78,South,180,3.2,-999.0,70,-99.99,,,0.00,Acu-Link.com,2013-04-18 08:48:00,
2013-04-18 03:03:00,24.3,15.6,29.79,South,180,3.7,-999.0,69,-99.99,,,0.00,Acu-Link.com,2013-04-18 09:03:00,
2013-04-18 03:19:00,23.4,14.8,29.79,SSE,157,4.7,-999.0,69,-99.99,,,0.00,Acu-Link.com,2013-04-18 09:19:00,
2013-04-18 03:34:00,23.0,14.4,29.78,SSE,157,3.7,-999.0,69,-99.99,,,0.00,Acu-Link.com,2013-04-18 09:34:00,
2013-04-18 03:49:00,22.3,13.7,29.78,South,180,2.2,-999.0,69,-99.99,,,0.00,Acu-Link.com,2013-04-18 09:49:00,
2013-04-18 04:04:00,21.6,14.0,29.78,South,180,0.0,-999.0,72,-99.99,,,0.00,Acu-Link.com,2013-04-18 10:04:00,
2013-04-18 04:19:00,20.7,13.4,29.79,South,180,0.0,-999.0,73,-99.99,,,0.00,Acu-Link.com,2013-04-18 10:19:00,
2013-04-18 04:35:00,19.8,13.2,29.80,South,180,0.0,-999.0,75,-99.99,,,0.00,Acu-Link.com,2013-04-18 10:35:00,
2013-04-18 04:50:00,19.8,13.2,29.80,South,180,3.2,-999.0,75,-99.99,,,0.00,Acu-Link.com,2013-04-18 10:50:00,
2013-04-18 05:05:00,20.8,13.8,29.81,ENE,67,2.7,-999.0,74,-99.99,,,0.00,Acu-Link.com,2013-04-18 11:05:00,
2013-04-18 05:20:00,21.9,13.3,29.80,SW,225,2.7,-999.0,69,-99.99,,,0.00,Acu-Link.com,2013-04-18 11:20:00,
2013-04-18 05:36:00,21.2,13.6,29.80,SSW,202,1.7,-999.0,72,-99.99,,,0.00,Acu-Link.com,2013-04-18 11:36:00,
2013-04-18 05:51:00,20.7,13.4,29.81,SSW,202,2.7,-999.0,73,-99.99,,,0.00,Acu-Link.com,2013-04-18 11:51:00,
2013-04-18 06:06:00,20.3,13.4,29.81,SSW,202,0.0,-999.0,74,-99.99,,,0.00,Acu-Link.com,2013-04-18 12:06:00,
2013-04-18 06:22:00,20.1,13.2,29.82,WSW,247,4.7,-999.0,74,-99.99,,,0.00,Acu-Link.com,2013-04-18 12:22:00,
2013-04-18 06:37:00,19.9,12.0,29.82,SSW,202,2.7,-999.0,71,-99.99,,,0.00,Acu-Link.com,2013-04-18 12:37:00,
2013-04-18 06:52:00,20.7,12.8,29.83,SSW,202,3.7,-999.0,71,-99.99,,,0.00,Acu-Link.com,2013-04-18 12:52:00,
2013-04-18 07:07:00,21.2,13.9,29.84,SSW,202,3.7,-999.0,73,-99.99,,,0.00,Acu-Link.com,2013-04-18 13:07:00,
2013-04-18 07:22:00,21.6,14.9,29.84,SW,225,5.8,-999.0,75,-99.99,,,0.00,Acu-Link.com,2013-04-18 13:22:00,
2013-04-18 07:37:00,22.1,16.0,29.85,South,180,6.3,-999.0,77,-99.99,,,0.00,Acu-Link.com,2013-04-18 13:37:00,
2013-04-18 07:53:00,23.5,17.4,29.85,SSW,202,6.8,-999.0,77,-99.99,,,0.00,Acu-Link.com,2013-04-18 13:53:00,
2013-04-18 08:08:00,24.8,18.0,29.85,WSW,247,6.3,-999.0,75,-99.99,,,0.00,Acu-Link.com,2013-04-18 14:08:00,
2013-04-18 08:23:00,24.8,17.1,29.85,SW,225,5.8,-999.0,72,-99.99,,,0.00,Acu-Link.com,2013-04-18 14:23:00,
2013-04-18 08:38:00,26.1,18.0,29.85,WSW,247,7.3,-999.0,71,-99.99,,,0.00,Acu-Link.com,2013-04-18 14:38:00,
2013-04-18 08:53:00,26.2,17.4,29.86,SW,225,5.3,-999.0,69,-99.99,,,0.00,Acu-Link.com,2013-04-18 14:53:00,
2013-04-18 09:09:00,25.5,17.8,29.87,WSW,247,7.3,-999.0,72,-99.99,,,0.00,Acu-Link.com,2013-04-18 15:09:00,
2013-04-18 09:24:00,27.5,19.0,29.87,WSW,247,5.8,-999.0,70,-99.99,,,0.00,Acu-Link.com,2013-04-18 15:24:00,
2013-04-18 09:39:00,27.5,18.7,29.87,WSW,247,8.9,-999.0,69,-99.99,,,0.00,Acu-Link.com,2013-04-18 15:39:00,
2013-04-18 09:54:00,30.9,20.5,29.87,NW,315,6.8,-999.0,65,-99.99,,,0.00,Acu-Link.com,2013-04-18 15:54:00,
2013-04-18 10:09:00,28.6,18.0,29.88,West,270,14.0,-999.0,64,-99.99,,,0.00,Acu-Link.com,2013-04-18 16:09:00,
2013-04-18 10:24:00,29.3,17.9,29.88,NW,315,9.9,-999.0,62,-99.99,,,0.00,Acu-Link.com,2013-04-18 16:24:00,
2013-04-18 10:39:00,34.0,17.8,29.88,NNE,22,2.2,-999.0,51,-99.99,,,0.00,Acu-Link.com,2013-04-18 16:39:00,
2013-04-18 10:54:00,29.3,15.6,29.88,West,270,13.5,-999.0,56,-99.99,,,0.00,Acu-Link.com,2013-04-18 16:54:00,
2013-04-18 11:10:00,28.8,15.5,29.89,West,270,10.9,-999.0,57,-99.99,,,0.00,Acu-Link.com,2013-04-18 17:10:00,
2013-04-18 11:25:00,30.6,16.4,29.89,WNW,292,7.8,-999.0,55,-99.99,,,0.00,Acu-Link.com,2013-04-18 17:25:00,
2013-04-18 11:40:00,34.0,16.4,29.89,NW,315,4.7,-999.0,48,-99.99,,,0.00,Acu-Link.com,2013-04-18 17:40:00,
2013-04-18 11:55:00,32.9,15.4,29.89,NW,315,3.7,-999.0,48,-99.99,,,0.00,Acu-Link.com,2013-04-18 17:55:00,
2013-04-18 12:10:00,33.6,16.5,29.88,WSW,247,7.3,-999.0,49,-99.99,,,0.00,Acu-Link.com,2013-04-18 18:10:00,
2013-04-18 12:25:00,34.5,15.9,29.87,WSW,247,10.4,-999.0,46,-99.99,,,0.00,Acu-Link.com,2013-04-18 18:25:00,
2013-04-18 12:40:00,34.5,13.8,29.89,NW,315,5.8,-999.0,42,-99.99,,,0.01,Acu-Link.com,2013-04-18 18:40:00,
2013-04-18 12:55:00,31.5,16.8,29.90,SW,225,13.5,-999.0,54,-99.99,,,0.01,Acu-Link.com,2013-04-18 18:55:00,
2013-04-18 13:11:00,31.1,18.9,29.90,WSW,247,13.0,-999.0,60,-99.99,,,0.01,Acu-Link.com,2013-04-18 19:11:00,
2013-04-18 13:26:00,30.4,19.7,29.91,SW,225,9.4,-999.0,64,-99.99,,,0.01,Acu-Link.com,2013-04-18 19:26:00,
2013-04-18 13:41:00,31.3,19.0,29.92,WSW,247,6.3,-999.0,60,-99.99,,,0.01,Acu-Link.com,2013-04-18 19:41:00,
2013-04-18 13:56:00,30.6,18.4,29.91,WSW,247,12.5,-999.0,60,-99.99,,,0.01,Acu-Link.com,2013-04-18 19:56:00,
2013-04-18 14:11:00,30.9,18.3,29.91,West,270,12.5,-999.0,59,-99.99,,,0.01,Acu-Link.com,2013-04-18 20:11:00,
2013-04-18 14:26:00,31.1,19.2,29.91,WSW,247,10.4,-999.0,61,-99.99,,,0.01,Acu-Link.com,2013-04-18 20:26:00,
2013-04-18 14:41:00,33.3,19.3,29.93,West,270,7.8,-999.0,56,-99.99,,,0.01,Acu-Link.com,2013-04-18 20:41:00,
2013-04-18 14:56:00,32.0,16.8,29.92,NW,315,5.3,-999.0,53,-99.99,,,0.01,Acu-Link.com,2013-04-18 20:56:00,
2013-04-18 15:11:00,32.9,18.1,29.92,NW,315,7.3,-999.0,54,-99.99,,,0.01,Acu-Link.com,2013-04-18 21:11:00,
2013-04-18 15:26:00,33.6,16.0,29.91,West,270,4.7,-999.0,48,-99.99,,,0.01,Acu-Link.com,2013-04-18 21:26:00,
2013-04-18 15:42:00,33.8,14.2,29.92,NW,315,4.2,-999.0,44,-99.99,,,0.01,Acu-Link.com,2013-04-18 21:42:00,
2013-04-18 15:57:00,31.6,16.5,29.92,NNE,22,3.7,-999.0,53,-99.99,,,0.01,Acu-Link.com,2013-04-18 21:57:00,
2013-04-18 16:12:00,36.9,19.1,29.92,West,270,5.3,-999.0,48,-99.99,,,0.01,Acu-Link.com,2013-04-18 22:12:00,
2013-04-18 16:27:00,35.1,17.9,29.93,SSW,202,4.7,-999.0,49,-99.99,,,0.01,Acu-Link.com,2013-04-18 22:27:00,
2013-04-18 16:42:00,35.4,17.2,29.92,South,180,8.3,-999.0,47,-99.99,,,0.01,Acu-Link.com,2013-04-18 22:42:00,
2013-04-18 16:57:00,35.8,16.0,29.91,SW,225,5.3,-999.0,44,-99.99,,,0.01,Acu-Link.com,2013-04-18 22:57:00,
2013-04-18 17:12:00,34.2,15.1,29.92,WSW,247,7.3,-999.0,45,-99.99,,,0.01,Acu-Link.com,2013-04-18 23:12:00,
2013-04-18 17:28:00,36.0,16.2,29.92,SSW,202,8.3,-999.0,44,-99.99,,,0.01,Acu-Link.com,2013-04-18 23:28:00,
2013-04-18 17:43:00,34.0,15.4,29.93,South,180,9.4,-999.0,46,-99.99,,,0.01,Acu-Link.com,2013-04-18 23:43:00,
2013-04-18 17:58:00,35.8,16.0,29.95,SW,225,7.3,-999.0,44,-99.99,,,0.01,Acu-Link.com,2013-04-18 23:58:00,
2013-04-18 18:13:00,33.3,14.8,29.94,WSW,247,12.5,-999.0,46,-99.99,,,0.01,Acu-Link.com,2013-04-19 00:13:00,
2013-04-18 18:28:00,33.4,14.9,29.95,WSW,247,5.8,-999.0,46,-99.99,,,0.01,Acu-Link.com,2013-04-19 00:28:00,
2013-04-18 18:43:00,35.8,16.0,29.94,WSW,247,9.9,-999.0,44,-99.99,,,0.01,Acu-Link.com,2013-04-19 00:43:00,
2013-04-18 18:59:00,36.5,15.1,29.96,West,270,6.8,-999.0,41,-99.99,,,0.01,Acu-Link.com,2013-04-19 00:59:00,
2013-04-18 19:14:00,34.3,13.1,29.95,WSW,247,7.3,-999.0,41,-99.99,,,0.01,Acu-Link.com,2013-04-19 01:14:00,
2013-04-18 19:29:00,33.3,17.1,29.97,NE,45,8.9,-999.0,51,-99.99,,,0.01,Acu-Link.com,2013-04-19 01:29:00,
2013-04-18 19:44:00,31.3,16.6,29.98,NNW,337,5.8,-999.0,54,-99.99,,,0.01,Acu-Link.com,2013-04-19 01:44:00,
2013-04-18 19:59:00,30.4,15.3,29.98,West,270,3.2,-999.0,53,-99.99,,,0.01,Acu-Link.com,2013-04-19 01:59:00,
2013-04-18 20:15:00,28.4,15.9,29.99,NE,45,3.2,-999.0,59,-99.99,,,0.01,Acu-Link.com,2013-04-19 02:15:00,
2013-04-18 20:30:00,27.3,15.7,30.00,NE,45,0.0,-999.0,61,-99.99,,,0.01,Acu-Link.com,2013-04-19 02:30:00,
2013-04-18 20:45:00,26.2,15.0,30.01,NE,45,0.0,-999.0,62,-99.99,,,0.01,Acu-Link.com,2013-04-19 02:45:00,
2013-04-18 21:00:00,25.7,14.5,30.01,NE,45,0.0,-999.0,62,-99.99,,,0.01,Acu-Link.com,2013-04-19 03:00:00,
2013-04-18 21:15:00,25.0,14.9,30.04,NE,45,1.7,-999.0,65,-99.99,,,0.01,Acu-Link.com,2013-04-19 03:15:00,
2013-04-18 21:31:00,25.2,14.8,30.05,NE,45,0.0,-999.0,64,-99.99,,,0.01,Acu-Link.com,2013-04-19 03:31:00,
2013-04-18 21:46:00,24.8,14.4,30.05,NE,45,0.0,-999.0,64,-99.99,,,0.01,Acu-Link.com,2013-04-19 03:46:00,
2013-04-18 22:01:00,24.6,12.7,30.06,NW,315,1.7,-999.0,60,-99.99,,,0.01,Acu-Link.com,2013-04-19 04:01:00,
2013-04-18 22:17:00,23.5,12.4,30.06,NW,315,1.7,-999.0,62,-99.99,,,0.01,Acu-Link.com,2013-04-19 04:17:00,
2013-04-18 22:32:00,23.2,11.8,30.07,South,180,3.7,-999.0,61,-99.99,,,0.01,Acu-Link.com,2013-04-19 04:32:00,
2013-04-18 22:47:00,24.6,10.8,30.06,South,180,3.2,-999.0,55,-99.99,,,0.01,Acu-Link.com,2013-04-19 04:47:00,
2013-04-18 23:03:00,24.6,9.9,30.08,SW,225,8.3,-999.0,53,-99.99,,,0.01,Acu-Link.com,2013-04-19 05:03:00,
2013-04-18 23:18:00,25.0,9.0,30.07,South,180,6.8,-999.0,50,-99.99,,,0.01,Acu-Link.com,2013-04-19 05:18:00,
2013-04-18 23:33:00,24.3,7.9,30.09,SSW,202,5.3,-999.0,49,-99.99,,,0.01,Acu-Link.com,2013-04-19 05:33:00,
2013-04-18 23:48:00,23.0,7.2,30.09,SE,135,3.7,-999.0,50,-99.99,,,0.01,Acu-Link.com,2013-04-19 05:48:00,